| time (UTC) | temp F | wind direction | speed knots | gust knots | rain 1hr in | rain 24hr in | rain mn in | humidity % | barometer mb |
| 20260510104454 | 49 | 63 | 0.0 | 0.0 | 0.00 | 0.00 | 0.00 | 95 | 1015.0 |
| 20260510103951 | 48 | 63 | 0.0 | 0.0 | 0.00 | 0.00 | 0.00 | 95 | 1014.8 |
| 20260510103448 | 48 | 72 | 0.0 | 0.0 | 0.00 | 0.00 | 0.00 | 95 | 1014.8 |
| 20260510102943 | 48 | 74 | 0.0 | 1.7 | 0.00 | 0.00 | 0.00 | 95 | 1014.9 |
| 20260510102439 | 48 | 70 | 0.0 | 0.0 | 0.00 | 0.00 | 0.00 | 95 | 1014.7 |
| 20260510101936 | 48 | 70 | 0.0 | 0.0 | 0.00 | 0.00 | 0.00 | 95 | 1014.7 |
| 20260510101434 | 48 | 70 | 0.0 | 0.0 | 0.00 | 0.00 | 0.00 | 95 | 1014.6 |
| 20260510100932 | 48 | 34 | 0.0 | 0.0 | 0.00 | 0.00 | 0.00 | 95 | 1014.6 |
| 20260510100428 | 48 | 61 | 0.0 | 0.0 | 0.00 | 0.00 | 0.00 | 95 | 1014.6 |
| 20260510095924 | 48 | 34 | 0.0 | 0.0 | 0.00 | 0.00 | 0.00 | 95 | 1014.2 |
| 20260510095420 | 48 | 44 | 0.0 | 0.0 | 0.00 | 0.00 | 0.00 | 95 | 1014.3 |
| 20260510094919 | 47 | 50 | 0.0 | 0.0 | 0.00 | 0.00 | 0.00 | 95 | 1014.3 |
| 20260510094414 | 48 | 61 | 0.0 | 0.0 | 0.00 | 0.00 | 0.00 | 95 | 1014.2 |
| 20260510093911 | 48 | 35 | 0.0 | 0.0 | 0.00 | 0.00 | 0.00 | 95 | 1014.3 |
| 20260510093406 | 48 | 31 | 0.0 | 0.0 | 0.00 | 0.00 | 0.00 | 95 | 1014.3 |
| 20260510092904 | 48 | 38 | 0.0 | 0.0 | 0.00 | 0.00 | 0.00 | 95 | 1014.3 |
| 20260510092401 | 48 | 57 | 0.0 | 0.0 | 0.00 | 0.00 | 0.00 | 95 | 1014.3 |
| 20260510091900 | 48 | 72 | 0.0 | 0.0 | 0.00 | 0.00 | 0.00 | 96 | 1014.0 |
| 20260510091358 | 48 | 75 | 0.9 | 1.7 | 0.00 | 0.00 | 0.00 | 96 | 1014.1 |
| 20260510090855 | 48 | 72 | 0.0 | 0.0 | 0.00 | 0.00 | 0.00 | 97 | 1014.1 |
| 20260510090351 | 48 | 52 | 0.0 | 0.9 | 0.00 | 0.00 | 0.00 | 97 | 1014.0 |
| 20260510085847 | 48 | 28 | 0.0 | 0.0 | 0.00 | 0.00 | 0.00 | 97 | 1014.1 |
| 20260510085342 | 48 | 63 | 0.0 | 0.9 | 0.00 | 0.00 | 0.00 | 98 | 1014.0 |
| 20260510084838 | 48 | 31 | 0.0 | 0.0 | 0.00 | 0.00 | 0.00 | 98 | 1014.0 |
| 20260510084335 | 48 | 347 | 0.0 | 0.0 | 0.00 | 0.00 | 0.00 | 98 | 1014.0 |
| 20260510083831 | 48 | 96 | 0.0 | 0.0 | 0.00 | 0.00 | 0.00 | 98 | 1014.0 |
| 20260510083328 | 48 | 61 | 0.0 | 1.7 | 0.00 | 0.00 | 0.00 | 98 | 1013.8 |
| 20260510082824 | 48 | 50 | 0.0 | 0.0 | 0.00 | 0.00 | 0.00 | 98 | 1014.0 |
| 20260510082321 | 47 | 32 | 0.0 | 0.0 | 0.00 | 0.00 | 0.00 | 98 | 1013.9 |
| 20260510081820 | 47 | 86 | 0.0 | 0.0 | 0.00 | 0.00 | 0.00 | 99 | 1013.9 |
| 20260510081316 | 47 | 30 | 0.0 | 0.0 | 0.00 | 0.00 | 0.00 | 98 | 1013.9 |
| 20260510080812 | 47 | 30 | 0.0 | 0.0 | 0.00 | 0.00 | 0.00 | 98 | 1013.9 |
| 20260510080307 | 47 | 64 | 0.0 | 0.0 | 0.00 | 0.00 | 0.00 | 98 | 1013.9 |
| 20260510075805 | 47 | 11 | 0.0 | 0.0 | 0.00 | 0.00 | 0.00 | 98 | 1013.9 |
| 20260510075305 | 47 | 327 | 0.0 | 0.0 | 0.00 | 0.00 | 0.00 | 98 | 1013.7 |
| 20260510074759 | 47 | 29 | 0.0 | 0.0 | 0.00 | 0.00 | 0.00 | 98 | 1013.8 |
| 20260510074255 | 47 | 29 | 0.0 | 0.0 | 0.00 | 0.00 | 0.00 | 98 | 1013.8 |
| 20260510073752 | 47 | 57 | 0.0 | 0.0 | 0.00 | 0.00 | 0.00 | 98 | 1013.9 |
| 20260510073247 | 46 | 81 | 0.0 | 0.0 | 0.00 | 0.00 | 0.00 | 98 | 1013.7 |
| 20260510072743 | 46 | 17 | 0.0 | 0.0 | 0.00 | 0.00 | 0.00 | 98 | 1013.9 |
| 20260510072240 | 46 | 19 | 0.0 | 0.0 | 0.00 | 0.00 | 0.00 | 98 | 1013.7 |
| 20260510071737 | 46 | 12 | 0.0 | 0.0 | 0.00 | 0.00 | 0.00 | 98 | 1013.7 |
| 20260510071233 | 46 | 39 | 0.0 | 0.0 | 0.00 | 0.00 | 0.00 | 98 | 1013.5 |
| 20260510070732 | 47 | 45 | 0.0 | 0.0 | 0.00 | 0.00 | 0.00 | 98 | 1013.8 |
| 20260510070229 | 47 | 42 | 0.0 | 0.0 | 0.00 | 0.00 | 0.00 | 98 | 1013.5 |
| 20260510065723 | 47 | 46 | 0.0 | 0.0 | 0.00 | 0.00 | 0.00 | 98 | 1013.5 |
| 20260510065220 | 47 | 47 | 0.0 | 0.0 | 0.00 | 0.00 | 0.00 | 98 | 1013.7 |
| 20260510064717 | 47 | 47 | 0.0 | 0.0 | 0.00 | 0.00 | 0.00 | 98 | 1013.4 |
| 20260510064214 | 47 | 49 | 0.0 | 0.0 | 0.00 | 0.00 | 0.00 | 97 | 1013.7 |
| 20260510063711 | 47 | 49 | 0.0 | 0.0 | 0.00 | 0.00 | 0.00 | 97 | 1013.5 |
| 20260510063207 | 47 | 48 | 0.0 | 0.0 | 0.00 | 0.00 | 0.00 | 97 | 1013.5 |
| 20260510062704 | 47 | 50 | 0.0 | 0.0 | 0.00 | 0.00 | 0.00 | 97 | 1013.6 |
| 20260510062200 | 47 | 49 | 0.0 | 0.0 | 0.00 | 0.00 | 0.00 | 97 | 1013.8 |
| 20260510061654 | 47 | 51 | 0.0 | 0.0 | 0.00 | 0.00 | 0.00 | 97 | 1013.7 |
| 20260510061152 | 47 | 56 | 0.0 | 0.0 | 0.00 | 0.00 | 0.00 | 97 | 1013.7 |
| 20260510060648 | 47 | 62 | 0.0 | 0.0 | 0.00 | 0.00 | 0.00 | 97 | 1013.9 |
| 20260510060145 | 47 | 62 | 0.0 | 0.0 | 0.00 | 0.00 | 0.00 | 97 | 1013.9 |
| 20260510055641 | 47 | 62 | 0.0 | 0.0 | 0.00 | 0.00 | 0.00 | 97 | 1013.9 |
| 20260510055140 | 47 | 77 | 0.0 | 0.0 | 0.00 | 0.00 | 0.00 | 97 | 1013.7 |
| 20260510054635 | 47 | 77 | 0.0 | 0.0 | 0.00 | 0.00 | 0.00 | 96 | 1013.6 |
| 20260510054131 | 47 | 79 | 0.0 | 0.0 | 0.00 | 0.00 | 0.00 | 96 | 1013.7 |
| 20260510053630 | 47 | 79 | 0.0 | 0.0 | 0.00 | 0.00 | 0.00 | 96 | 1013.7 |
| 20260510053127 | 47 | 53 | 0.0 | 0.0 | 0.00 | 0.00 | 0.00 | 96 | 1013.9 |
| 20260510052623 | 47 | 53 | 0.0 | 0.0 | 0.00 | 0.00 | 0.00 | 96 | 1013.9 |
| 20260510052119 | 47 | 53 | 0.0 | 0.0 | 0.00 | 0.00 | 0.00 | 96 | 1013.7 |
| 20260510051614 | 47 | 54 | 0.0 | 0.0 | 0.00 | 0.00 | 0.00 | 95 | 1013.7 |
| 20260510051112 | 47 | 55 | 0.0 | 0.0 | 0.00 | 0.00 | 0.00 | 95 | 1013.8 |
| 20260510050609 | 47 | 55 | 0.0 | 0.0 | 0.00 | 0.00 | 0.00 | 95 | 1013.7 |
| 20260510050106 | 47 | 56 | 0.0 | 0.0 | 0.00 | 0.00 | 0.00 | 95 | 1013.9 |
| 20260510045603 | 47 | 61 | 0.0 | 0.0 | 0.00 | 0.00 | 0.00 | 94 | 1013.8 |
| 20260510045059 | 47 | 53 | 0.0 | 0.0 | 0.00 | 0.00 | 0.00 | 94 | 1013.8 |
| 20260510044555 | 47 | 54 | 0.0 | 0.0 | 0.00 | 0.00 | 0.00 | 94 | 1014.1 |
| 20260510044054 | 48 | 61 | 0.0 | 0.0 | 0.00 | 0.00 | 0.00 | 93 | 1014.1 |
| 20260510043549 | 48 | 62 | 0.0 | 0.0 | 0.00 | 0.00 | 0.00 | 93 | 1014.0 |
| 20260510043045 | 48 | 62 | 0.0 | 0.9 | 0.00 | 0.00 | 0.00 | 93 | 1014.0 |
| 20260510042544 | 48 | 37 | 0.0 | 0.0 | 0.00 | 0.00 | 0.00 | 92 | 1013.9 |
| 20260510042039 | 48 | 37 | 0.0 | 0.0 | 0.00 | 0.00 | 0.00 | 92 | 1013.9 |
| 20260510041537 | 49 | 49 | 0.0 | 0.0 | 0.00 | 0.00 | 0.00 | 90 | 1014.0 |
| 20260510041034 | 49 | 58 | 0.0 | 0.9 | 0.00 | 0.00 | 0.00 | 90 | 1013.8 |
| 20260510040531 | 49 | 10 | 0.0 | 0.9 | 0.00 | 0.00 | 0.00 | 90 | 1014.0 |
| 20260510040027 | 49 | 23 | 0.0 | 0.0 | 0.00 | 0.00 | 0.00 | 90 | 1013.8 |
| 20260510035523 | 49 | 59 | 0.0 | 0.0 | 0.00 | 0.00 | 0.00 | 89 | 1013.7 |
| 20260510035023 | 49 | 96 | 0.9 | 0.9 | 0.00 | 0.00 | 0.00 | 89 | 1013.7 |
| 20260510034521 | 49 | 65 | 0.0 | 1.7 | 0.00 | 0.00 | 0.00 | 89 | 1013.7 |
| 20260510034017 | 49 | 112 | 0.0 | 0.0 | 0.00 | 0.00 | 0.00 | 90 | 1013.7 |
| 20260510033513 | 49 | 86 | 0.0 | 0.0 | 0.00 | 0.00 | 0.00 | 91 | 1013.7 |
| 20260510033012 | 49 | 17 | 0.0 | 0.0 | 0.00 | 0.00 | 0.00 | 90 | 1013.7 |
| 20260510032508 | 49 | 17 | 0.0 | 0.0 | 0.00 | 0.00 | 0.00 | 89 | 1013.7 |
| 20260510032008 | 50 | 17 | 0.0 | 0.0 | 0.00 | 0.00 | 0.00 | 88 | 1013.8 |
| 20260510031504 | 50 | 17 | 0.0 | 0.0 | 0.00 | 0.00 | 0.00 | 88 | 1013.8 |
| 20260510031000 | 50 | 108 | 0.0 | 0.0 | 0.00 | 0.00 | 0.00 | 88 | 1013.6 |
| 20260510030455 | 50 | 95 | 0.0 | 0.0 | 0.00 | 0.00 | 0.00 | 88 | 1013.6 |
| 20260510025953 | 50 | 91 | 0.0 | 0.0 | 0.00 | 0.00 | 0.00 | 88 | 1013.6 |
| 20260510025450 | 50 | 91 | 0.0 | 0.0 | 0.00 | 0.00 | 0.00 | 88 | 1013.6 |
| 20260510024947 | 49 | 102 | 0.0 | 0.0 | 0.00 | 0.00 | 0.00 | 89 | 1013.6 |
| 20260510024444 | 49 | 102 | 0.0 | 0.0 | 0.00 | 0.00 | 0.00 | 90 | 1013.4 |
| 20260510023939 | 49 | 142 | 0.0 | 0.0 | 0.00 | 0.00 | 0.00 | 90 | 1013.7 |
| 20260510023436 | 49 | 142 | 0.0 | 0.0 | 0.00 | 0.00 | 0.00 | 90 | 1013.4 |
| 20260510022933 | 49 | 142 | 0.0 | 0.0 | 0.00 | 0.00 | 0.00 | 89 | 1013.5 |
| 20260510022432 | 49 | 142 | 0.0 | 0.0 | 0.00 | 0.00 | 0.00 | 90 | 1013.5 |
| 20260510021931 | 49 | 142 | 0.0 | 0.0 | 0.00 | 0.00 | 0.00 | 90 | 1013.4 |
| 20260510021430 | 49 | 142 | 0.0 | 0.0 | 0.00 | 0.00 | 0.00 | 90 | 1013.3 |
| 20260510020927 | 49 | 142 | 0.0 | 0.0 | 0.00 | 0.00 | 0.00 | 90 | 1013.4 |
| 20260510020427 | 49 | 142 | 0.0 | 0.0 | 0.00 | 0.00 | 0.00 | 90 | 1013.4 |
| 20260510015923 | 49 | 142 | 0.0 | 0.0 | 0.00 | 0.00 | 0.00 | 89 | 1013.2 |
| 20260510015419 | 49 | 142 | 0.0 | 0.0 | 0.00 | 0.00 | 0.00 | 89 | 1013.2 |
| 20260510014914 | 49 | 142 | 0.0 | 0.0 | 0.00 | 0.00 | 0.00 | 88 | 1012.9 |
| 20260510014412 | 50 | 142 | 0.0 | 0.0 | 0.00 | 0.00 | 0.00 | 88 | 1013.0 |
| 20260510013908 | 50 | 142 | 0.0 | 0.0 | 0.00 | 0.00 | 0.00 | 87 | 1012.7 |
| 20260510013403 | 50 | 142 | 0.0 | 0.0 | 0.00 | 0.00 | 0.00 | 87 | 1012.7 |
| 20260510012858 | 50 | 142 | 0.0 | 0.0 | 0.00 | 0.00 | 0.00 | 87 | 1012.7 |
| 20260510012353 | 50 | 142 | 0.0 | 0.0 | 0.00 | 0.00 | 0.00 | 87 | 1012.5 |
| 20260510011848 | 50 | 142 | 0.0 | 0.0 | 0.00 | 0.00 | 0.00 | 87 | 1012.4 |
| 20260510011344 | 50 | 142 | 0.0 | 0.0 | 0.00 | 0.00 | 0.00 | 86 | 1012.5 |
| 20260510010840 | 50 | 142 | 0.0 | 0.0 | 0.00 | 0.00 | 0.00 | 87 | 1012.4 |
| 20260510010338 | 51 | 142 | 0.0 | 0.0 | 0.00 | 0.00 | 0.00 | 86 | 1012.3 |
| 20260510005834 | 51 | 142 | 0.0 | 0.0 | 0.00 | 0.00 | 0.00 | 84 | 1012.4 |
| 20260510005330 | 51 | 142 | 0.0 | 0.0 | 0.00 | 0.00 | 0.00 | 83 | 1012.1 |
| 20260510004828 | 52 | 142 | 0.0 | 0.0 | 0.00 | 0.00 | 0.00 | 82 | 1012.1 |
| 20260510004326 | 52 | 142 | 0.0 | 0.0 | 0.00 | 0.00 | 0.00 | 81 | 1011.9 |
| 20260510003823 | 53 | 142 | 0.0 | 0.0 | 0.00 | 0.00 | 0.00 | 80 | 1012.1 |
| 20260510003320 | 53 | 144 | 0.0 | 0.0 | 0.00 | 0.00 | 0.00 | 79 | 1011.9 |
| 20260510002819 | 53 | 143 | 0.0 | 0.0 | 0.00 | 0.00 | 0.00 | 78 | 1012.0 |
| 20260510002316 | 54 | 143 | 0.0 | 0.0 | 0.00 | 0.00 | 0.00 | 76 | 1011.6 |
| 20260510001812 | 55 | 143 | 0.0 | 0.0 | 0.00 | 0.00 | 0.00 | 74 | 1011.6 |
| 20260510001311 | 56 | 154 | 0.0 | 0.0 | 0.00 | 0.00 | 0.00 | 73 | 1011.6 |
| 20260510000806 | 58 | 154 | 0.0 | 0.0 | 0.00 | 0.00 | 0.00 | 70 | 1011.6 |
| 20260510000305 | 58 | 171 | 0.0 | 0.9 | 0.00 | 0.00 | 0.00 | 67 | 1011.9 |
| 20260509235801 | 58 | 152 | 0.0 | 1.7 | 0.00 | 0.00 | 0.00 | 67 | 1011.5 |
| 20260509235257 | 59 | 153 | 0.9 | 1.7 | 0.00 | 0.00 | 0.00 | 66 | 1011.6 |
| 20260509234753 | 59 | 176 | 1.7 | 2.6 | 0.00 | 0.00 | 0.00 | 64 | 1011.5 |
| 20260509234250 | 60 | 169 | 0.9 | 2.6 | 0.00 | 0.00 | 0.00 | 62 | 1011.3 |
| 20260509233749 | 60 | 182 | 0.0 | 1.7 | 0.00 | 0.00 | 0.00 | 63 | 1011.3 |
| 20260509233246 | 60 | 188 | 1.7 | 2.6 | 0.00 | 0.00 | 0.00 | 62 | 1011.3 |
| 20260509232741 | 60 | 192 | 0.9 | 1.7 | 0.00 | 0.00 | 0.00 | 62 | 1011.3 |
| 20260509232239 | 60 | 177 | 3.5 | 5.2 | 0.00 | 0.00 | 0.00 | 60 | 1011.2 |
| 20260509231735 | 61 | 220 | 1.7 | 3.5 | 0.00 | 0.00 | 0.00 | 60 | 1011.3 |
| 20260509231232 | 61 | 164 | 2.6 | 3.5 | 0.00 | 0.00 | 0.00 | 59 | 1011.2 |
| 20260509230730 | 61 | 162 | 1.7 | 2.6 | 0.00 | 0.00 | 0.00 | 59 | 1011.1 |
| 20260509230227 | 61 | 177 | 0.9 | 2.6 | 0.00 | 0.00 | 0.00 | 60 | 1011.3 |
| 20260509225722 | 61 | 189 | 0.9 | 5.2 | 0.00 | 0.00 | 0.00 | 59 | 1011.4 |
| 20260509225218 | 62 | 140 | 3.5 | 5.2 | 0.00 | 0.00 | 0.00 | 58 | 1011.5 |
| 20260509224714 | 62 | 256 | 1.7 | 2.6 | 0.00 | 0.00 | 0.00 | 58 | 1011.3 |
| 20260509224211 | 62 | 195 | 1.7 | 3.5 | 0.00 | 0.00 | 0.00 | 57 | 1011.4 |
| 20260509223708 | 63 | 159 | 3.5 | 6.1 | 0.00 | 0.00 | 0.00 | 55 | 1011.6 |
| 20260509223205 | 62 | 159 | 1.7 | 2.6 | 0.00 | 0.00 | 0.00 | 56 | 1011.7 |
| 20260509222702 | 62 | 182 | 1.7 | 2.6 | 0.00 | 0.00 | 0.00 | 55 | 1011.6 |
| 20260509222157 | 62 | 236 | 0.9 | 3.5 | 0.00 | 0.00 | 0.00 | 56 | 1011.7 |
| 20260509221653 | 63 | 186 | 2.6 | 3.5 | 0.00 | 0.00 | 0.00 | 55 | 1011.6 |
| 20260509221149 | 62 | 185 | 3.5 | 7.0 | 0.00 | 0.00 | 0.00 | 54 | 1011.6 |
| 20260509220645 | 63 | 126 | 3.5 | 6.1 | 0.00 | 0.00 | 0.00 | 53 | 1011.6 |
| 20260509220141 | 62 | 168 | 0.9 | 7.0 | 0.00 | 0.00 | 0.00 | 54 | 1011.4 |
| 20260509215638 | 62 | 186 | 1.7 | 6.1 | 0.00 | 0.00 | 0.00 | 54 | 1011.7 |
| 20260509215135 | 62 | 175 | 4.3 | 5.2 | 0.00 | 0.00 | 0.00 | 53 | 1011.5 |
| 20260509214632 | 62 | 180 | 2.6 | 3.5 | 0.00 | 0.00 | 0.00 | 53 | 1011.6 |
| 20260509214128 | 62 | 177 | 2.6 | 5.2 | 0.00 | 0.00 | 0.00 | 52 | 1011.5 |
| 20260509213625 | 62 | 190 | 1.7 | 3.5 | 0.00 | 0.00 | 0.00 | 52 | 1011.6 |
| 20260509213121 | 62 | 172 | 2.6 | 3.5 | 0.00 | 0.00 | 0.00 | 52 | 1011.6 |
| 20260509212619 | 61 | 195 | 0.0 | 3.5 | 0.00 | 0.00 | 0.00 | 52 | 1011.4 |
| 20260509212116 | 61 | 203 | 3.5 | 5.2 | 0.00 | 0.00 | 0.00 | 51 | 1011.5 |
| 20260509211611 | 62 | 193 | 1.7 | 6.1 | 0.00 | 0.00 | 0.00 | 50 | 1011.4 |
| 20260509211108 | 62 | 187 | 1.7 | 1.7 | 0.00 | 0.00 | 0.00 | 49 | 1011.4 |
| 20260509210605 | 62 | 197 | 0.9 | 2.6 | 0.00 | 0.00 | 0.00 | 48 | 1011.4 |
| 20260509205602 | 62 | 178 | 2.6 | 3.5 | 0.00 | 0.00 | 0.00 | 48 | 1011.2 |
| 20260509205056 | 62 | 161 | 0.9 | 2.6 | 0.00 | 0.00 | 0.00 | 49 | 1011.1 |
| 20260509204553 | 62 | 187 | 1.7 | 1.7 | 0.00 | 0.00 | 0.00 | 48 | 1011.2 |
| 20260509204050 | 62 | 229 | 0.0 | 3.5 | 0.00 | 0.00 | 0.00 | 47 | 1011.3 |
| 20260509203546 | 63 | 185 | 3.5 | 5.2 | 0.00 | 0.00 | 0.00 | 46 | 1011.2 |
| 20260509203045 | 63 | 182 | 0.9 | 1.7 | 0.00 | 0.00 | 0.00 | 46 | 1011.0 |
| 20260509202544 | 65 | 208 | 1.7 | 6.1 | 0.00 | 0.00 | 0.00 | 44 | 1010.9 |
| 20260509202040 | 62 | 171 | 3.5 | 5.2 | 0.00 | 0.00 | 0.00 | 44 | 1010.9 |
| 20260509201536 | 62 | 190 | 3.5 | 3.5 | 0.00 | 0.00 | 0.00 | 43 | 1010.8 |
| 20260509201034 | 64 | 233 | 2.6 | 7.0 | 0.00 | 0.00 | 0.00 | 43 | 1010.9 |
| 20260509200533 | 65 | 193 | 3.5 | 7.8 | 0.00 | 0.00 | 0.00 | 43 | 1010.8 |
| 20260509200030 | 64 | 132 | 2.6 | 6.1 | 0.00 | 0.00 | 0.00 | 44 | 1010.9 |
| 20260509195525 | 63 | 189 | 2.6 | 5.2 | 0.00 | 0.00 | 0.00 | 43 | 1010.7 |
| 20260509195025 | 62 | 158 | 1.7 | 7.0 | 0.00 | 0.00 | 0.00 | 45 | 1010.9 |
| 20260509194520 | 63 | 217 | 2.6 | 7.0 | 0.00 | 0.00 | 0.00 | 45 | 1010.8 |
| 20260509194018 | 63 | 187 | 1.7 | 2.6 | 0.00 | 0.00 | 0.00 | 44 | 1010.9 |
| 20260509193518 | 64 | 216 | 0.0 | 5.2 | 0.00 | 0.00 | 0.00 | 43 | 1010.9 |
| 20260509193015 | 64 | 181 | 1.7 | 2.6 | 0.00 | 0.00 | 0.00 | 42 | 1011.0 |
| 20260509192512 | 63 | 227 | 1.7 | 7.0 | 0.00 | 0.00 | 0.00 | 43 | 1011.1 |
| 20260509192007 | 65 | 226 | 3.5 | 5.2 | 0.00 | 0.00 | 0.00 | 43 | 1010.9 |
| 20260509191502 | 66 | 178 | 4.3 | 7.0 | 0.00 | 0.00 | 0.00 | 43 | 1010.9 |
| 20260509190957 | 65 | 193 | 2.6 | 6.1 | 0.00 | 0.00 | 0.00 | 42 | 1010.8 |
| 20260509190455 | 66 | 206 | 5.2 | 7.8 | 0.00 | 0.00 | 0.00 | 36 | 1010.8 |
| 20260509185953 | 66 | 141 | 2.6 | 6.1 | 0.00 | 0.00 | 0.00 | 39 | 1010.7 |
| 20260509185449 | 65 | 217 | 2.6 | 2.6 | 0.00 | 0.00 | 0.00 | 40 | 1010.7 |
| 20260509184947 | 64 | 220 | 3.5 | 7.0 | 0.00 | 0.00 | 0.00 | 42 | 1010.7 |
| 20260509184445 | 65 | 278 | 1.7 | 6.1 | 0.00 | 0.00 | 0.00 | 42 | 1010.7 |
| 20260509183941 | 66 | 193 | 4.3 | 7.8 | 0.00 | 0.00 | 0.00 | 41 | 1010.7 |
| 20260509183440 | 65 | 184 | 2.6 | 8.7 | 0.00 | 0.00 | 0.00 | 40 | 1010.8 |
| 20260509182937 | 64 | 40 | 0.9 | 5.2 | 0.00 | 0.00 | 0.00 | 47 | 1010.8 |
| 20260509182433 | 64 | 173 | 5.2 | 7.0 | 0.00 | 0.00 | 0.00 | 39 | 1010.9 |
| 20260509181931 | 64 | 228 | 2.6 | 7.0 | 0.00 | 0.00 | 0.00 | 43 | 1010.9 |
| 20260509181429 | 64 | 85 | 0.0 | 3.5 | 0.00 | 0.00 | 0.00 | 43 | 1010.9 |
| 20260509180926 | 64 | 228 | 0.9 | 3.5 | 0.00 | 0.00 | 0.00 | 38 | 1011.0 |
| 20260509180421 | 63 | 229 | 1.7 | 6.1 | 0.00 | 0.00 | 0.00 | 37 | 1010.7 |
| 20260509175919 | 62 | 207 | 1.7 | 3.5 | 0.00 | 0.00 | 0.00 | 37 | 1010.7 |
| 20260509175414 | 62 | 168 | 1.7 | 5.2 | 0.00 | 0.00 | 0.00 | 41 | 1011.0 |
| 20260509174911 | 62 | 216 | 1.7 | 3.5 | 0.00 | 0.00 | 0.00 | 46 | 1011.0 |
| 20260509174407 | 62 | 216 | 1.7 | 3.5 | 0.00 | 0.00 | 0.00 | 51 | 1010.9 |
| 20260509173904 | 61 | 206 | 1.7 | 3.5 | 0.00 | 0.00 | 0.00 | 55 | 1010.8 |
| 20260509173403 | 61 | 165 | 2.6 | 7.0 | 0.00 | 0.00 | 0.00 | 58 | 1010.9 |
| 20260509172900 | 61 | 277 | 0.9 | 6.1 | 0.00 | 0.00 | 0.00 | 56 | 1010.8 |
| 20260509172357 | 60 | 178 | 1.7 | 3.5 | 0.00 | 0.00 | 0.00 | 59 | 1011.0 |
| 20260509171853 | 61 | 190 | 4.3 | 6.1 | 0.00 | 0.00 | 0.00 | 60 | 1011.2 |
| 20260509171349 | 61 | 185 | 2.6 | 3.5 | 0.00 | 0.00 | 0.00 | 60 | 1011.2 |
| 20260509170845 | 61 | 192 | 1.7 | 2.6 | 0.00 | 0.00 | 0.00 | 60 | 1011.0 |
| 20260509170341 | 60 | 73 | 3.5 | 5.2 | 0.00 | 0.00 | 0.00 | 60 | 1011.3 |
| 20260509165836 | 60 | 211 | 3.5 | 3.5 | 0.00 | 0.00 | 0.00 | 62 | 1011.2 |
| 20260509165331 | 60 | 159 | 0.9 | 2.6 | 0.00 | 0.00 | 0.00 | 63 | 1011.5 |
| 20260509164827 | 59 | 196 | 0.9 | 3.5 | 0.00 | 0.00 | 0.00 | 64 | 1011.4 |
| 20260509164323 | 59 | 201 | 1.7 | 2.6 | 0.00 | 0.00 | 0.00 | 64 | 1011.4 |
| 20260509163819 | 58 | 194 | 1.7 | 2.6 | 0.00 | 0.00 | 0.00 | 64 | 1011.5 |
| 20260509163316 | 59 | 146 | 3.5 | 5.2 | 0.00 | 0.00 | 0.00 | 64 | 1011.4 |
| 20260509162815 | 59 | 236 | 1.7 | 3.5 | 0.00 | 0.00 | 0.00 | 65 | 1011.5 |
| 20260509162308 | 58 | 166 | 1.7 | 3.5 | 0.00 | 0.00 | 0.00 | 64 | 1011.3 |
| 20260509161805 | 59 | 179 | 2.6 | 2.6 | 0.00 | 0.00 | 0.00 | 64 | 1011.2 |
| 20260509161301 | 58 | 176 | 1.7 | 2.6 | 0.00 | 0.00 | 0.00 | 66 | 1011.1 |
| 20260509160756 | 58 | 204 | 2.6 | 5.2 | 0.00 | 0.00 | 0.00 | 66 | 1011.1 |
| 20260509160253 | 58 | 180 | 3.5 | 3.5 | 0.00 | 0.00 | 0.00 | 65 | 1011.1 |
| 20260509155748 | 58 | 188 | 1.7 | 1.7 | 0.00 | 0.00 | 0.00 | 67 | 1011.2 |
| 20260509155245 | 57 | 165 | 0.0 | 3.5 | 0.00 | 0.00 | 0.00 | 68 | 1011.4 |
| 20260509154741 | 57 | 242 | 2.6 | 5.2 | 0.00 | 0.00 | 0.00 | 68 | 1011.3 |
| 20260509154238 | 57 | 167 | 3.5 | 5.2 | 0.00 | 0.00 | 0.00 | 68 | 1011.3 |
| 20260509153735 | 57 | 277 | 0.9 | 3.5 | 0.00 | 0.00 | 0.00 | 70 | 1011.5 |
| 20260509153231 | 57 | 276 | 0.9 | 3.5 | 0.00 | 0.00 | 0.00 | 70 | 1011.3 |
| 20260509152728 | 57 | 184 | 2.6 | 2.6 | 0.00 | 0.00 | 0.00 | 67 | 1011.5 |
| 20260509152224 | 58 | 212 | 0.0 | 2.6 | 0.00 | 0.00 | 0.00 | 67 | 1011.3 |
| 20260509151721 | 58 | 198 | 2.6 | 3.5 | 0.00 | 0.00 | 0.00 | 66 | 1011.3 |
| 20260509151218 | 58 | 188 | 1.7 | 6.1 | 0.00 | 0.00 | 0.00 | 69 | 1011.2 |
| 20260509150716 | 57 | 267 | 0.9 | 3.5 | 0.00 | 0.00 | 0.00 | 68 | 1011.3 |
| 20260509150214 | 57 | 200 | 1.7 | 7.0 | 0.00 | 0.00 | 0.00 | 67 | 1011.4 |
| 20260509145710 | 58 | 197 | 1.7 | 5.2 | 0.00 | 0.00 | 0.00 | 66 | 1011.5 |
| 20260509145205 | 58 | 191 | 3.5 | 7.0 | 0.00 | 0.00 | 0.00 | 67 | 1011.5 |
| 20260509144702 | 58 | 211 | 3.5 | 5.2 | 0.00 | 0.00 | 0.00 | 67 | 1011.4 |
| 20260509144159 | 57 | 153 | 2.6 | 5.2 | 0.00 | 0.00 | 0.00 | 67 | 1011.2 |
| 20260509143656 | 57 | 216 | 1.7 | 5.2 | 0.00 | 0.00 | 0.00 | 66 | 1011.3 |
| 20260509143154 | 57 | 207 | 0.0 | 3.5 | 0.00 | 0.00 | 0.00 | 67 | 1011.0 |
| 20260509142649 | 57 | 197 | 0.9 | 2.6 | 0.00 | 0.00 | 0.00 | 66 | 1011.1 |
| 20260509142146 | 57 | 142 | 0.9 | 3.5 | 0.00 | 0.00 | 0.00 | 66 | 1011.4 |
| 20260509141642 | 57 | 206 | 1.7 | 6.1 | 0.00 | 0.00 | 0.00 | 65 | 1011.2 |
| 20260509141138 | 57 | 181 | 3.5 | 3.5 | 0.00 | 0.00 | 0.00 | 65 | 1011.1 |
| 20260509140635 | 58 | 179 | 2.6 | 6.1 | 0.00 | 0.00 | 0.00 | 64 | 1011.2 |
| 20260509140133 | 58 | 184 | 1.7 | 5.2 | 0.00 | 0.00 | 0.00 | 63 | 1011.0 |
| 20260509135630 | 59 | 231 | 0.9 | 6.1 | 0.00 | 0.00 | 0.00 | 63 | 1011.0 |
| 20260509135128 | 59 | 162 | 3.5 | 3.5 | 0.00 | 0.00 | 0.00 | 61 | 1011.0 |
| 20260509134624 | 59 | 160 | 2.6 | 5.2 | 0.00 | 0.00 | 0.00 | 61 | 1010.8 |
| 20260509134122 | 58 | 184 | 3.5 | 5.2 | 0.00 | 0.00 | 0.00 | 62 | 1011.0 |
| 20260509133619 | 58 | 201 | 4.3 | 7.0 | 0.00 | 0.00 | 0.00 | 63 | 1010.9 |
| 20260509133116 | 57 | 173 | 3.5 | 7.0 | 0.00 | 0.00 | 0.00 | 64 | 1010.8 |
| 20260509132614 | 57 | 192 | 0.9 | 5.2 | 0.00 | 0.00 | 0.00 | 65 | 1010.8 |
| 20260509132113 | 56 | 227 | 0.9 | 2.6 | 0.00 | 0.00 | 0.00 | 66 | 1010.8 |
| 20260509131608 | 56 | 215 | 0.9 | 3.5 | 0.00 | 0.00 | 0.00 | 66 | 1010.9 |
| 20260509131106 | 56 | 212 | 0.9 | 0.9 | 0.00 | 0.00 | 0.00 | 66 | 1011.0 |
| 20260509130601 | 56 | 181 | 0.9 | 3.5 | 0.00 | 0.00 | 0.00 | 65 | 1011.3 |
| 20260509130058 | 56 | 223 | 1.7 | 2.6 | 0.00 | 0.00 | 0.00 | 65 | 1011.2 |
| 20260509125554 | 56 | 183 | 0.9 | 0.9 | 0.00 | 0.00 | 0.00 | 65 | 1011.4 |
| 20260509125051 | 56 | 252 | 2.6 | 2.6 | 0.00 | 0.00 | 0.00 | 65 | 1011.3 |
| 20260509124547 | 55 | 189 | 1.7 | 3.5 | 0.00 | 0.00 | 0.00 | 66 | 1011.3 |
| 20260509124045 | 55 | 217 | 0.0 | 1.7 | 0.00 | 0.00 | 0.00 | 67 | 1011.3 |
| 20260509123543 | 55 | 272 | 1.7 | 1.7 | 0.00 | 0.00 | 0.00 | 67 | 1011.1 |
| 20260509123039 | 54 | 218 | 0.0 | 1.7 | 0.00 | 0.00 | 0.00 | 68 | 1011.3 |
| 20260509122535 | 53 | 173 | 0.0 | 0.9 | 0.00 | 0.00 | 0.00 | 69 | 1011.4 |
| 20260509122032 | 53 | 167 | 0.0 | 0.9 | 0.00 | 0.00 | 0.00 | 70 | 1011.4 |
| 20260509121529 | 53 | 110 | 0.9 | 2.6 | 0.00 | 0.00 | 0.00 | 69 | 1011.5 |
| 20260509121027 | 53 | 199 | 0.9 | 0.9 | 0.00 | 0.00 | 0.00 | 69 | 1011.5 |
| 20260509120525 | 53 | 51 | 0.9 | 2.6 | 0.00 | 0.00 | 0.00 | 69 | 1011.5 |
| 20260509120023 | 52 | 145 | 0.0 | 0.0 | 0.00 | 0.00 | 0.00 | 70 | 1011.5 |
| 20260509115519 | 52 | 238 | 0.0 | 0.0 | 0.00 | 0.00 | 0.00 | 70 | 1011.5 |
| 20260509115017 | 52 | 322 | 0.0 | 0.0 | 0.00 | 0.00 | 0.00 | 71 | 1011.7 |
| 20260509114515 | 51 | 12 | 0.0 | 0.0 | 0.00 | 0.00 | 0.00 | 75 | 1011.4 |
| 20260509114014 | 51 | 12 | 0.0 | 0.0 | 0.00 | 0.00 | 0.00 | 77 | 1011.5 |
| 20260509113512 | 50 | 12 | 0.0 | 0.0 | 0.00 | 0.00 | 0.00 | 76 | 1011.3 |
| 20260509113009 | 50 | 14 | 0.0 | 0.0 | 0.00 | 0.00 | 0.00 | 77 | 1011.4 |
| 20260509112505 | 49 | 14 | 0.0 | 0.0 | 0.00 | 0.00 | 0.00 | 78 | 1011.4 |
| 20260509112002 | 49 | 76 | 0.0 | 0.0 | 0.00 | 0.00 | 0.00 | 79 | 1011.2 |
| 20260509111459 | 49 | 45 | 0.0 | 0.0 | 0.00 | 0.00 | 0.00 | 78 | 1011.3 |
| 20260509110957 | 49 | 45 | 0.0 | 0.0 | 0.00 | 0.00 | 0.00 | 78 | 1011.4 |
| 20260509110453 | 49 | 65 | 0.0 | 0.0 | 0.00 | 0.00 | 0.00 | 78 | 1011.2 |
| 20260509105950 | 49 | 65 | 0.0 | 0.0 | 0.00 | 0.00 | 0.00 | 77 | 1011.3 |
| 20260509105449 | 49 | 33 | 0.0 | 0.0 | 0.00 | 0.00 | 0.00 | 77 | 1011.3 |
| 20260509104945 | 49 | 86 | 0.0 | 0.9 | 0.00 | 0.00 | 0.00 | 77 | 1011.3 |